Le nostre stazioni meteo in Italia

Pubblicità
Il mio iltempo24.it
Bari, Italia (16271): Temperatura & dewpoint: 19.04.2018 20:00:00 - 25.04.2018 20:00:00 (CEST)Bari, Italia (16271): velocità del vento: 19.04.2018 20:00:00 - 25.04.2018 20:00:00 (CEST)Bari, Italia (16271): direzione del vento: 19.04.2018 20:00:00 - 25.04.2018 20:00:00 (CEST)Bari, Italia (16271): reduced air pressure: 19.04.2018 20:00:00 - 25.04.2018 20:00:00 (CEST)Bari, Italia (16271): precipitazioni: 19.04.2018 20:00:00 - 25.04.2018 20:00:00 (CEST)
Data & Tempo tt [°C] td [°C] ff [km/h] ff [kn] dd ppp [hPa] rr [mm]
25.04.2018 20:00:00 24,5 6,7 11 6 S 1015,0 0,0
25.04.2018 19:00:00 21,0 15,0 13 7 E 1014,9 -
25.04.2018 18:00:00 20,1 15,9 18 10 E 1015,1 -
25.04.2018 17:00:00 20,4 16,2 16 9 E 1015,5 -
25.04.2018 16:00:00 21,0 17,5 15 8 E 1016,1 -
25.04.2018 15:00:00 21,0 15,2 16 9 E 1016,8 -
25.04.2018 14:00:00 21,4 15,8 11 6 E 1017,5 0,0
25.04.2018 13:00:00 21,6 16,3 13 7 E 1018,1 -
25.04.2018 12:00:00 21,4 15,4 11 6 NE 1018,6 -
25.04.2018 11:00:00 20,8 15,0 11 6 NE 1018,8 -
25.04.2018 10:00:00 21,1 12,5 4 2 S 1018,6 -
25.04.2018 09:00:00 21,0 13,4 2 1 S 1018,1 -
25.04.2018 08:00:00 18,5 12,2 2 1 S 1018,2 0,0
25.04.2018 07:00:00 17,0 11,0 5 3 S 1018,1 -
25.04.2018 06:00:00 17,0 10,3 9 5 S 1017,9 -
25.04.2018 05:00:00 17,8 10,4 2 1 S 1017,7 -
25.04.2018 04:00:00 17,9 9,7 9 5 S 1017,7 -
25.04.2018 03:00:00 18,5 9,2 5 3 S 1017,7 -
25.04.2018 02:00:00 19,4 8,3 2 1 S 1018,0 0,0
25.04.2018 01:00:00 19,7 8,9 11 6 S 1018,1 -
25.04.2018 00:00:00 19,9 9,7 15 8 S 1018,1 -
24.04.2018 23:00:00 20,3 12,0 9 5 S 1018,2 -
24.04.2018 22:00:00 20,8 15,5 5 3 E 1018,2 -
24.04.2018 21:00:00 19,9 16,5 4 2 E 1017,8 -
24.04.2018 20:00:00 19,5 16,3 4 2 E 1017,6 0,0
24.04.2018 19:00:00 19,9 16,7 8 4 E 1017,5 -
24.04.2018 18:00:00 20,3 15,0 13 7 E 1017,8 -
24.04.2018 17:00:00 20,4 14,9 15 8 E 1018,0 -
24.04.2018 16:00:00 20,8 15,5 13 7 E 1018,2 -
24.04.2018 15:00:00 21,0 15,2 13 7 E 1018,5 -
24.04.2018 14:00:00 20,9 15,1 13 7 E 1018,9 0,0
24.04.2018 13:00:00 21,0 15,2 13 7 E 1018,8 -
24.04.2018 12:00:00 21,6 15,1 13 7 NE 1018,9 -
24.04.2018 11:00:00 22,0 15,5 5 3 NO 1019,0 -
24.04.2018 10:00:00 21,4 14,0 4 2 O 1018,8 -
24.04.2018 09:00:00 20,6 14,2 2 1 O 1018,7 -
24.04.2018 08:00:00 17,1 12,4 9 5 O 1018,5 0,0
24.04.2018 07:00:00 15,5 11,2 9 5 O 1018,1 -
24.04.2018 06:00:00 15,5 10,8 5 3 O 1017,8 -
24.04.2018 05:00:00 15,9 10,8 9 5 O 1017,5 -
24.04.2018 04:00:00 16,0 10,0 5 3 NO 1017,5 -
24.04.2018 03:00:00 16,2 10,7 2 1 NO 1017,4 -
24.04.2018 02:00:00 16,7 12,0 0 0 N 1017,6 0,0
24.04.2018 01:00:00 17,0 12,5 0 0 N 1017,7 -
24.04.2018 00:00:00 16,4 11,7 4 2 NO 1017,7 -
23.04.2018 23:00:00 17,6 13,8 0 0 N 1017,5 -
23.04.2018 22:00:00 17,8 14,0 0 0 N 1017,3 -
23.04.2018 21:00:00 18,1 14,3 0 0 N 1017,1 -
23.04.2018 20:00:00 18,7 13,9 4 2 NO 1016,8 0,0
23.04.2018 19:00:00 19,7 14,2 2 1 NO 1016,6 -
23.04.2018 18:00:00 20,4 14,4 4 2 NO 1016,9 -
23.04.2018 17:00:00 20,3 14,3 2 1 NO 1017,1 -
23.04.2018 16:00:00 20,9 14,9 8 4 NO 1017,2 -
23.04.2018 15:00:00 21,2 15,2 9 5 NO 1017,7 -
23.04.2018 14:00:00 20,5 14,8 13 7 NO 1018,2 0,0
23.04.2018 13:00:00 20,4 14,7 15 8 NO 1018,3 -
23.04.2018 12:00:00 19,8 14,1 9 5 NO 1018,9 -
23.04.2018 11:00:00 18,9 13,9 11 6 NO 1018,8 -
23.04.2018 10:00:00 18,6 14,4 9 5 NO 1018,7 -
23.04.2018 09:00:00 18,0 13,4 9 5 O 1018,4 -
23.04.2018 08:00:00 16,4 12,3 9 5 O 1018,3 0,0
23.04.2018 07:00:00 15,3 12,8 9 5 O 1018,3 -
23.04.2018 06:00:00 15,5 12,9 9 5 O 1018,2 -
23.04.2018 05:00:00 16,1 13,3 9 5 O 1018,2 -
23.04.2018 04:00:00 16,7 13,9 4 2 NO 1018,3 -
23.04.2018 03:00:00 17,0 14,0 5 3 NO 1018,1 -
23.04.2018 02:00:00 17,5 14,7 9 5 NO 1018,3 0,0
23.04.2018 01:00:00 18,0 4,5 4 2 O 1018,3 -
23.04.2018 00:00:00 18,4 0,9 13 7 S 1018,0 -
22.04.2018 23:00:00 18,9 3,0 16 9 S 1018,1 -
22.04.2018 22:00:00 19,4 6,1 16 9 S 1018,1 -
22.04.2018 21:00:00 20,3 4,3 16 9 S 1017,7 -
22.04.2018 20:00:00 22,0 3,1 16 9 S 1017,2 0,0
22.04.2018 19:00:00 23,7 4,6 18 10 S 1016,9 -
22.04.2018 18:00:00 19,4 16,2 16 9 E 1016,9 -
22.04.2018 17:00:00 19,1 15,9 22 12 E 1017,2 -
22.04.2018 16:00:00 19,6 15,0 21 11 E 1017,5 -
22.04.2018 15:00:00 20,7 14,9 16 9 E 1018,1 -
22.04.2018 14:00:00 20,9 15,4 15 8 NE 1018,7 0,0
22.04.2018 13:00:00 20,4 15,1 18 10 NE 1018,9 -
22.04.2018 12:00:00 21,9 14,0 13 7 NE 1019,2 -
22.04.2018 11:00:00 22,5 12,7 11 6 S 1019,3 -
22.04.2018 10:00:00 20,0 13,6 13 7 S 1019,4 -
22.04.2018 09:00:00 17,7 14,9 15 8 S 1019,3 -
22.04.2018 08:00:00 14,2 11,7 15 8 S 1019,4 0,0
22.04.2018 07:00:00 13,4 11,1 13 7 S 1019,4 -
22.04.2018 06:00:00 14,2 11,1 11 6 S 1019,1 -
22.04.2018 05:00:00 14,0 11,5 16 9 S 1019,3 -
22.04.2018 04:00:00 15,2 12,7 5 3 S 1019,5 -
22.04.2018 03:00:00 16,5 13,7 0 0 N 1019,7 -
22.04.2018 02:00:00 16,2 12,5 5 3 S 1019,7 0,0
22.04.2018 01:00:00 16,5 12,4 8 4 S 1020,1 -
22.04.2018 00:00:00 17,3 12,8 5 3 S 1020,2 -
21.04.2018 23:00:00 18,6 13,4 5 3 S 1020,2 -
21.04.2018 22:00:00 19,0 13,5 5 3 O 1020,3 -
21.04.2018 21:00:00 18,8 13,8 2 1 NO 1019,9 -
21.04.2018 20:00:00 19,1 13,8 4 2 NO 1019,7 0,0
21.04.2018 19:00:00 20,3 13,7 4 2 NO 1019,4 -
21.04.2018 18:00:00 20,6 12,3 8 4 NO 1019,5 -
21.04.2018 17:00:00 21,7 14,3 5 3 NE 1019,7 -
21.04.2018 16:00:00 22,0 14,3 5 3 NE 1020,0 -
21.04.2018 15:00:00 21,5 15,5 11 6 NE 1020,4 -
21.04.2018 14:00:00 21,2 15,9 9 5 NO 1020,5 0,0
21.04.2018 13:00:00 19,8 14,5 13 7 NO 1020,5 -
21.04.2018 12:00:00 19,4 14,1 9 5 NO 1020,8 -
21.04.2018 11:00:00 18,1 13,7 15 8 NO 1020,8 -
21.04.2018 10:00:00 17,5 12,9 21 11 NO 1020,2 -
21.04.2018 09:00:00 17,2 12,3 15 8 NO 1020,0 -
21.04.2018 08:00:00 16,7 11,6 9 5 O 1019,8 0,0
21.04.2018 07:00:00 15,9 10,0 11 6 O 1019,3 -
21.04.2018 06:00:00 16,4 10,4 9 5 O 1019,0 -
21.04.2018 05:00:00 16,7 10,0 11 6 O 1018,9 -
21.04.2018 04:00:00 17,5 9,8 11 6 NO 1018,8 -
21.04.2018 03:00:00 17,9 11,2 11 6 O 1018,9 -
21.04.2018 02:00:00 18,0 12,0 4 2 NO 1019,1 0,0
21.04.2018 01:00:00 18,6 9,0 11 6 O 1018,9 -
21.04.2018 00:00:00 18,7 9,7 13 7 O 1018,6 -
20.04.2018 23:00:00 19,3 10,5 16 9 O 1018,5 -
20.04.2018 22:00:00 18,9 13,9 9 5 NO 1018,9 -
20.04.2018 21:00:00 19,7 12,4 21 11 NO 1018,5 -
20.04.2018 20:00:00 19,4 13,3 18 10 NO 1018,1 0,0
20.04.2018 19:00:00 19,3 13,8 15 8 NO 1018,3 -
20.04.2018 18:00:00 20,4 14,2 9 5 NO 1018,4 -
20.04.2018 17:00:00 21,5 11,8 18 10 NO 1018,6 -
20.04.2018 16:00:00 21,3 11,6 18 10 NO 1019,2 -
20.04.2018 15:00:00 21,7 9,8 18 10 NO 1019,7 -
20.04.2018 14:00:00 21,4 11,4 18 10 NO 1020,5 0,0
20.04.2018 13:00:00 21,2 11,2 18 10 NO 1021,0 -
20.04.2018 12:00:00 20,5 11,6 21 11 NO 1021,5 -
20.04.2018 11:00:00 20,0 10,6 21 11 NO 1021,5 -
20.04.2018 10:00:00 19,2 10,7 18 10 NO 1021,3 -
20.04.2018 09:00:00 18,9 10,1 15 8 NO 1021,1 -
20.04.2018 08:00:00 16,9 9,3 15 8 O 1021,3 0,0
20.04.2018 07:00:00 16,2 9,6 11 6 O 1021,4 -
20.04.2018 06:00:00 15,7 9,3 8 4 O 1021,2 -
20.04.2018 05:00:00 16,2 9,8 9 5 O 1021,2 -
20.04.2018 04:00:00 16,1 10,1 15 8 O 1021,4 -
20.04.2018 03:00:00 16,3 10,3 15 8 O 1021,8 -
20.04.2018 02:00:00 16,4 10,6 16 9 O 1022,3 0,0
20.04.2018 01:00:00 16,9 11,3 15 8 O 1022,9 -
20.04.2018 00:00:00 17,3 14,5 11 6 O 1023,4 -
19.04.2018 23:00:00 17,7 12,9 21 11 NO 1023,5 -
19.04.2018 22:00:00 18,4 12,8 13 7 NO 1023,8 -
19.04.2018 21:00:00 18,9 11,9 13 7 NO 1023,6 -
19.04.2018 20:00:00 19,4 11,4 15 8 NO 1023,3 0,0

tt = Temperatura
td = dewpoint
ff = velocità del vento
dd = direzione del vento
ppp = reduced air pressure
rr = precipitazioni

Stazioni seguenti

WeatherPro
AMSI
MeteoEarth